Tracking 22441 objects as of 28-Feb-2021
HD Live streaming from Space Station
objects crossing your sky now

DELTA 1 DEB

Track DELTA 1 DEB now!
10-day predictions


NORAD ID: 21327
Int'l Code: 1975-052AV
Perigee: 1,098.8 km
Apogee: 1,521.4 km
Inclination: 99.7 °
Period: 111.7 minutes
Semi major axis: 7681 km
RCS: 0.2848 m2 (medium)
Launch date: June 12, 1975
Source: United States (US)
Launch site: AIR FORCE WESTERN TEST RANGE (AFWTR)

Note: This is SATELLITE DEBRIS
aabbcc
Your satellite tracking list
Your tracking list is empty




NASA's NSSDC Master Catalog

Two Line Element Set (TLE):
1 21327U 75052AV  21059.56414890 -.00000011  00000-0  91817-4 0  9991
2 21327  99.7423 172.0946 0275107 250.9968 117.9403 12.89642888401759
Source of the keplerian elements: AFSPC